Beatrice, NE

9:26 PM CST on December 11, 2019 (GMT -0600)
Beatrice Municipal

Weather History for KBIE - October, 2019

Change the Weather History Date:

Friday, October 4, 2019

  Actual Average Record
Temperature  
Mean Temperature 52 °F -  
Max Temperature 56 °F 76 °F 93 °F (1954)
Min Temperature 47 °F 47 °F 28 °F (1999)
Degree Days  
Heating Degree Days 14    
Growing Degree Days 2 (Base 50)    
Moisture  
Dew Point 48 °F    
Average Humidity 87    
Maximum Humidity 94    
Minimum Humidity 77    
Precipitation  
Precipitation 0.07 in - - ()
Sea Level Pressure  
Sea Level Pressure 30.25 in    
Wind  
Wind Speed 6 mph (ESE)    
Max Wind Speed 13 mph    
Max Gust Speed 18 mph    
Visibility 10 miles    
Events Rain , Thunderstorm    
Averages and records for this station are not official NWS values.
T = Trace of Precipitation, MM = Missing Value Source: NWS Daily Summary

Daily Weather History Graph

Daily Weather History Graph

Search for Another Location

Airport or City:

Astronomy

Oct. 04, 2019 Rise Set
Actual Time 7:26 AM CDT 7:04 PM CDT
Civil Twilight 6:59 AM CDT 7:31 PM CDT
Nautical Twilight 6:27 AM CDT 8:03 PM CDT
Astronomical Twilight 5:55 AM CDT 8:34 PM CDT
Moon 1:59 PM CDT (10/4) 11:33 PM CDT (10/4)
Length of Visible Light 12h 32m
Length of Day
11h 38m
Waxing Crescent, 40% of the Moon is Illuminated
Oct 4
Waxing Crescent
Oct 5
First Quarter
Oct 13
Full
Oct 21
Last Quarter
Oct 27
New

Hourly Weather History & Observations

Time (CDT) Temp. Dew Point Humidity Pressure Visibility Wind Dir Wind Speed Gust Speed Precip Events Conditions
12:15 AM 47.7 °F 45.0 °F 90% 30.35 in 10.0 mi Calm Calm - N/A   Clear
12:35 AM 48.7 °F 45.9 °F 90% 30.35 in 10.0 mi ENE 3.5 mph - N/A   Mostly Cloudy
12:55 AM 49.1 °F 45.7 °F 88% 30.35 in 10.0 mi ENE 4.6 mph - N/A   Overcast
1:15 AM 49.5 °F 45.9 °F 87% 30.34 in 10.0 mi ENE 4.6 mph - N/A   Overcast
1:35 AM 49.6 °F 46.0 °F 87% 30.34 in 10.0 mi ENE 4.6 mph - N/A   Overcast
1:55 AM 50.0 °F 45.9 °F 86% 30.34 in 10.0 mi ENE 4.6 mph - N/A   Overcast
2:15 AM 50.2 °F 45.7 °F 85% 30.35 in 10.0 mi ENE 6.9 mph - N/A   Overcast
2:35 AM 50.2 °F 45.7 °F 85% 30.36 in 10.0 mi ENE 4.6 mph - N/A   Overcast
2:55 AM 50.2 °F 45.9 °F 85% 30.35 in 10.0 mi ENE 5.8 mph - N/A   Overcast
3:15 AM 50.2 °F 46.4 °F 87% 30.35 in 10.0 mi ENE 4.6 mph - N/A   Overcast
3:35 AM 50.2 °F 46.4 °F 87% 30.35 in 10.0 mi East 5.8 mph - N/A   Overcast
3:55 AM 50.0 °F 46.2 °F 87% 30.35 in 10.0 mi ENE 5.8 mph - N/A   Overcast
4:15 AM 50.0 °F 46.2 °F 87% 30.34 in 10.0 mi ENE 6.9 mph - N/A   Overcast
4:35 AM 50.0 °F 45.9 °F 86% 30.35 in 10.0 mi ENE 4.6 mph - N/A   Overcast
4:55 AM 50.0 °F 45.7 °F 85% 30.36 in 10.0 mi East 4.6 mph - N/A   Overcast
5:15 AM 49.5 °F 45.9 °F 87% 30.35 in 10.0 mi East 4.6 mph - N/A   Overcast
5:30 AM 49.1 °F 45.7 °F 88% 30.35 in 10.0 mi ENE 4.6 mph - N/A   Overcast
5:55 AM 48.6 °F 45.5 °F 89% 30.34 in 10.0 mi ENE 6.9 mph - N/A   Overcast
6:15 AM 48.4 °F 45.5 °F 90% 30.33 in 10.0 mi ENE 8.1 mph - N/A   Mostly Cloudy
6:35 AM 48.2 °F 45.5 °F 90% 30.34 in 10.0 mi ENE 8.1 mph - N/A   Scattered Clouds
6:55 AM 48.2 °F 45.5 °F 90% 30.34 in 10.0 mi East 6.9 mph - N/A   Scattered Clouds
7:15 AM 48.0 °F 45.5 °F 91% 30.35 in 10.0 mi ESE 3.5 mph - N/A   Scattered Clouds
7:35 AM 48.2 °F 45.3 °F 90% 30.34 in 10.0 mi East 5.8 mph - N/A   Mostly Cloudy
7:55 AM 48.4 °F 45.5 °F 90% 30.36 in 10.0 mi East 3.5 mph - N/A   Mostly Cloudy
8:15 AM 48.9 °F 45.5 °F 88% 30.36 in 10.0 mi ESE 4.6 mph - N/A   Overcast
8:35 AM 49.1 °F 45.0 °F 86% 30.35 in 10.0 mi ESE 9.2 mph - N/A   Overcast
8:55 AM 49.1 °F 44.6 °F 84% 30.34 in 10.0 mi East 11.5 mph - N/A   Mostly Cloudy
9:15 AM 49.1 °F 44.6 °F 84% 30.34 in 10.0 mi East 10.4 mph - N/A   Scattered Clouds
9:35 AM 49.3 °F 44.2 °F 83% 30.33 in 10.0 mi East 11.5 mph 16.1 mph N/A   Clear
9:55 AM 50.0 °F 44.6 °F 82% 30.33 in 10.0 mi East 12.7 mph - N/A   Mostly Cloudy
10:15 AM 51.1 °F 45.0 °F 80% 30.35 in 10.0 mi ESE 6.9 mph - N/A   Overcast
10:35 AM 51.6 °F 45.0 °F 78% 30.33 in 10.0 mi East 10.4 mph 17.3 mph N/A   Overcast
10:55 AM 51.6 °F 45.3 °F 79% 30.33 in 10.0 mi East 8.1 mph - N/A   Overcast
11:15 AM 52.2 °F 45.5 °F 78% 30.34 in 10.0 mi SE 9.2 mph - N/A   Overcast
11:35 AM 52.2 °F 45.5 °F 78% 30.33 in 10.0 mi ESE 9.2 mph - N/A   Overcast
11:55 AM 53.1 °F 45.9 °F 77% 30.32 in 10.0 mi ESE 8.1 mph - N/A   Overcast
12:15 PM 52.9 °F 45.9 °F 77% 30.31 in 10.0 mi SE 9.2 mph - N/A   Overcast
12:35 PM 53.2 °F 46.0 °F 77% 30.30 in 10.0 mi ESE 9.2 mph - N/A   Overcast
12:55 PM 52.7 °F 47.7 °F 83% 30.28 in 10.0 mi ESE 9.2 mph - N/A Rain Light Rain
1:15 PM 52.5 °F 48.2 °F 85% 30.28 in 10.0 mi ESE 8.1 mph - N/A   Light Drizzle
1:35 PM 53.6 °F 49.5 °F 86% 30.27 in 10.0 mi SE 10.4 mph - N/A   Light Drizzle
1:55 PM 53.4 °F 48.9 °F 85% 30.27 in 10.0 mi ESE 11.5 mph - N/A   Overcast
2:15 PM 53.8 °F 48.9 °F 84% 30.25 in 10.0 mi ESE 10.4 mph - N/A   Overcast
2:35 PM 53.6 °F 48.6 °F 83% 30.24 in 10.0 mi SE 11.5 mph - N/A   Overcast
2:55 PM 53.1 °F 48.6 °F 85% 30.23 in 10.0 mi ESE 10.4 mph - N/A   Overcast
3:15 PM 52.9 °F 48.9 °F 86% 30.22 in 10.0 mi ESE 10.4 mph - N/A Rain Light Rain
3:35 PM 52.7 °F 49.6 °F 89% 30.20 in 7.0 mi ESE 10.4 mph - 0.03 in Rain Light Rain
3:55 PM 52.2 °F 49.3 °F 90% 30.19 in 10.0 mi ESE 12.7 mph 17.3 mph 0.04 in Rain Light Rain
4:15 PM 52.2 °F 49.6 °F 91% 30.19 in 10.0 mi ESE 6.9 mph - N/A Rain Rain
4:35 PM 51.8 °F 49.8 °F 93% 30.19 in 10.0 mi SE 11.5 mph - 0.02 in Rain Light Rain
4:55 PM 51.8 °F 50.0 °F 94% 30.17 in 10.0 mi ESE 10.4 mph - 0.02 in Rain Light Rain
5:15 PM 52.2 °F 49.6 °F 91% 30.17 in 10.0 mi ESE 8.1 mph - N/A   Overcast
5:35 PM 51.8 °F 49.6 °F 92% 30.17 in 10.0 mi ESE 8.1 mph - 0.01 in   Light Drizzle
5:55 PM 51.8 °F 49.8 °F 93% 30.16 in 10.0 mi SE 10.4 mph - 0.01 in   Overcast
6:15 PM 52.0 °F 50.0 °F 93% 30.15 in 10.0 mi ESE 10.4 mph - N/A Rain Light Rain
6:35 PM 52.0 °F 50.2 °F 94% 30.13 in 10.0 mi ESE 8.1 mph - N/A   Overcast
6:55 PM 52.3 °F 50.4 °F 93% 30.13 in 10.0 mi SE 9.2 mph 18.4 mph N/A   Overcast
7:15 PM 52.3 °F 50.4 °F 93% 30.12 in 10.0 mi ESE 8.1 mph 16.1 mph N/A   Overcast
7:35 PM 52.7 °F 50.2 °F 91% 30.12 in 10.0 mi ESE 9.2 mph 16.1 mph N/A   Overcast
7:55 PM 52.7 °F 50.4 °F 92% 30.11 in 10.0 mi SE 9.2 mph - N/A   Overcast
8:15 PM 52.9 °F 50.9 °F 93% 30.10 in 10.0 mi ESE 9.2 mph - N/A   Overcast
8:35 PM 53.1 °F 51.1 °F 93% 30.10 in 10.0 mi SE 8.1 mph - N/A   Overcast
8:55 PM 53.6 °F 51.1 °F 91% 30.09 in 10.0 mi SE 9.2 mph - N/A   Overcast
9:15 PM 53.6 °F 51.1 °F 91% 30.08 in 10.0 mi SE 6.9 mph - N/A Thunderstorm Overcast
9:35 PM 54.1 °F 51.1 °F 89% 30.06 in 10.0 mi SE 11.5 mph 16.1 mph N/A Thunderstorm Overcast
9:55 PM 54.5 °F 51.1 °F 88% 30.06 in 10.0 mi SE 10.4 mph - N/A Thunderstorm Overcast
10:15 PM 54.9 °F 51.3 °F 88% 30.05 in 10.0 mi SSE 11.5 mph - N/A   Overcast
10:35 PM 55.0 °F 51.3 °F 87% 30.05 in 10.0 mi SE 10.4 mph - N/A Thunderstorm Overcast
10:55 PM 55.4 °F 51.6 °F 87% 30.04 in 10.0 mi SSE 10.4 mph 17.3 mph N/A Thunderstorm Overcast
11:15 PM 55.6 °F 51.8 °F 87% 30.03 in 10.0 mi SSE 10.4 mph - N/A   Overcast
11:35 PM 56.3 °F 52.0 °F 85% 30.02 in 10.0 mi SSE 10.4 mph - N/A   Overcast
11:55 PM 56.3 °F 52.0 °F 85% 30.01 in 10.0 mi SSE 9.2 mph - N/A   Overcast